Tracking 22882 objects as of 18-Apr-2021
HD Live streaming from Space Station
objects crossing your sky now

COSMOS 1538

Track COSMOS 1538 now!
10-day predictions
COSMOS 1538 is classified as:


NORAD ID: 14759
Int'l Code: 1984-019A
Perigee: 771.9 km
Apogee: 801.5 km
Inclination: 74.0 °
Period: 100.4 minutes
Semi major axis: 7157 km
RCS: 2.0376 m2 (large)
Launch date: February 21, 1984
Source: Commonwealth of Independent States (former USSR) (CIS)
Launch site: PLESETSK MISSILE AND SPACE COMPLEX (PKMTR)
aabbcc
Your satellite tracking list
Your tracking list is empty




NASA's NSSDC Master Catalog

Two Line Element Set (TLE):
1 14759U 84019A   21108.47001479 -.00000015  00000-0  41105-5 0  9995
2 14759  74.0382 128.9891 0020680  14.8079 345.3673 14.33641108942653
Source of the keplerian elements: AFSPC